This is the latest recevied weather packets stored in our database for station/object YO9FTR-10. If no packets are shown the sender has not sent any weather packets the latest 1 day(s).
| Time | Temp. | Humidity | Pressure | Rain* | Wind** | Luminosity | Snow |
|---|---|---|---|---|---|---|---|
| 1777965758 | 21.11° C | 39% | 1020.5 hPa | - | - | - | - |
| 1777964856 | 20° C | 43% | 1020.5 hPa | - | - | - | - |
| 1777963952 | 20° C | 37% | 1020.5 hPa | - | - | - | - |
| 1777963049 | 21.11° C | 38% | 1020.5 hPa | - | - | - | - |
| 1777962146 | 20.56° C | 38% | 1020.5 hPa | - | - | - | - |
| 1777961244 | 20° C | 36% | 1020.5 hPa | - | - | - | - |
| 1777960341 | 21.67° C | 36% | 1020.5 hPa | - | - | - | - |
| 1777959438 | 19.44° C | 44% | 1020.6 hPa | - | - | - | - |
| 1777958535 | 15.56° C | 50% | 1020.6 hPa | - | - | - | - |
| 1777957632 | 16.11° C | 53% | 1020.7 hPa | - | - | - | - |
| 1777956729 | 14.44° C | 53% | 1020.7 hPa | - | - | - | - |
| 1777955826 | 12.78° C | 59% | 1020.6 hPa | - | - | - | - |
| 1777954924 | 11.67° C | 65% | 1020.6 hPa | - | - | - | - |
| 1777954021 | 10° C | 69% | 1020.6 hPa | - | - | - | - |
| 1777953118 | 9.44° C | 72% | 1020.6 hPa | - | - | - | - |
| 1777952215 | 8.89° C | 71% | 1020.6 hPa | - | - | - | - |
| 1777951312 | 8.89° C | 73% | 1020.6 hPa | - | - | - | - |
| 1777950409 | 7.78° C | 77% | 1020.5 hPa | - | - | - | - |
| 1777949506 | 8.33° C | 73% | 1020.4 hPa | - | - | - | - |
| 1777948603 | 7.78° C | 75% | 1020.4 hPa | - | - | - | - |
| 1777947700 | 7.78° C | 77% | 1020.4 hPa | - | - | - | - |
| 1777946798 | 9.44° C | 67% | 1020.3 hPa | - | - | - | - |
| 1777945895 | 11.11° C | 60% | 1020.2 hPa | - | - | - | - |
| 1777944991 | 9.44° C | 66% | 1020.2 hPa | - | - | - | - |
| 1777944088 | 10.56° C | 60% | 1020.1 hPa | - | - | - | - |
* Rain since midnight (hover to see other rain measurements)
** Current wind speed in m/s (hover to see current wind gust speed)